| time (UTC) | temp C | wind direction | speed KPH | gust KPH | rain 1hr cm | rain 24hr cm | rain mn cm | humidity % | barometer mb |
| 20260507043327 | 8 | 291 | 0.0 | 0.0 | 0.00 | 0.00 | 0.00 | 50 | 933.4 |
| 20260507042824 | 8 | 258 | 0.0 | 0.0 | 0.00 | 0.00 | 0.00 | 51 | 933.2 |
| 20260507042319 | 8 | 241 | 0.0 | 8.0 | 0.00 | 0.00 | 0.00 | 51 | 933.3 |
| 20260507041817 | 7 | 223 | 8.0 | 12.9 | 0.00 | 0.00 | 0.00 | 52 | 933.2 |
| 20260507041313 | 7 | 217 | 4.8 | 11.3 | 0.00 | 0.00 | 0.00 | 54 | 933.4 |
| 20260507040810 | 7 | 224 | 6.4 | 14.5 | 0.00 | 0.00 | 0.00 | 55 | 933.3 |
| 20260507040306 | 7 | 219 | 8.0 | 14.5 | 0.00 | 0.00 | 0.00 | 56 | 933.2 |
| 20260507035802 | 7 | 217 | 0.0 | 12.9 | 0.00 | 0.00 | 0.00 | 55 | 933.4 |
| 20260507035257 | 7 | 267 | 3.2 | 11.3 | 0.00 | 0.00 | 0.00 | 54 | 933.3 |
| 20260507034756 | 8 | 204 | 4.8 | 11.3 | 0.00 | 0.00 | 0.00 | 53 | 932.9 |
| 20260507034252 | 8 | 241 | 0.0 | 14.5 | 0.00 | 0.00 | 0.00 | 53 | 933.3 |
| 20260507033751 | 8 | 226 | 8.0 | 11.3 | 0.00 | 0.00 | 0.00 | 53 | 933.3 |
| 20260507033248 | 8 | 221 | 1.6 | 12.9 | 0.00 | 0.00 | 0.00 | 54 | 933.2 |
| 20260507032745 | 8 | 212 | 4.8 | 11.3 | 0.00 | 0.00 | 0.00 | 53 | 932.9 |
| 20260507032241 | 8 | 215 | 0.0 | 1.6 | 0.00 | 0.00 | 0.00 | 53 | 932.8 |
| 20260507031738 | 8 | 242 | 0.0 | 11.3 | 0.00 | 0.00 | 0.00 | 54 | 932.7 |
| 20260507031235 | 8 | 292 | 6.4 | 9.7 | 0.00 | 0.00 | 0.00 | 55 | 932.9 |
| 20260507030731 | 8 | 230 | 0.0 | 0.0 | 0.00 | 0.00 | 0.00 | 54 | 932.5 |
| 20260507030229 | 9 | 288 | 0.0 | 0.0 | 0.00 | 0.00 | 0.00 | 52 | 932.4 |
| 20260507025726 | 9 | 238 | 0.0 | 0.0 | 0.00 | 0.00 | 0.00 | 52 | 932.3 |
| 20260507025223 | 10 | 252 | 0.0 | 3.2 | 0.00 | 0.00 | 0.00 | 50 | 932.3 |
| 20260507024721 | 10 | 297 | 0.0 | 9.7 | 0.00 | 0.00 | 0.00 | 48 | 932.4 |
| 20260507024218 | 10 | 247 | 0.0 | 4.8 | 0.00 | 0.00 | 0.00 | 46 | 932.3 |
| 20260507023713 | 10 | 253 | 0.0 | 3.2 | 0.00 | 0.00 | 0.00 | 44 | 932.1 |
| 20260507023211 | 10 | 273 | 0.0 | 8.0 | 0.00 | 0.00 | 0.00 | 44 | 932.1 |
| 20260507022708 | 11 | 316 | 0.0 | 11.3 | 0.00 | 0.00 | 0.00 | 43 | 932.3 |
| 20260507022204 | 11 | 265 | 1.6 | 12.9 | 0.00 | 0.00 | 0.00 | 42 | 932.0 |
| 20260507021700 | 11 | 247 | 1.6 | 9.7 | 0.00 | 0.00 | 0.00 | 40 | 932.1 |
| 20260507021155 | 12 | 265 | 1.6 | 4.8 | 0.00 | 0.00 | 0.00 | 38 | 932.0 |
| 20260507020654 | 12 | 335 | 1.6 | 8.0 | 0.00 | 0.00 | 0.00 | 37 | 932.3 |
| 20260507020149 | 12 | 330 | 0.0 | 4.8 | 0.00 | 0.00 | 0.00 | 37 | 932.6 |
| 20260507015648 | 12 | 17 | 3.2 | 9.7 | 0.00 | 0.00 | 0.00 | 35 | 932.7 |
| 20260507015145 | 13 | 50 | 0.0 | 0.0 | 0.00 | 0.00 | 0.00 | 36 | 932.7 |
| 20260507014641 | 13 | 305 | 0.0 | 9.7 | 0.00 | 0.00 | 0.00 | 36 | 932.7 |
| 20260507014138 | 12 | 333 | 1.6 | 4.8 | 0.00 | 0.00 | 0.00 | 36 | 932.9 |
| 20260507013635 | 12 | 350 | 1.6 | 11.3 | 0.00 | 0.00 | 0.00 | 35 | 932.6 |
| 20260507013132 | 13 | 331 | 8.0 | 14.5 | 0.00 | 0.00 | 0.00 | 35 | 932.6 |
| 20260507012629 | 13 | 313 | 11.3 | 17.7 | 0.00 | 0.00 | 0.00 | 34 | 932.5 |
| 20260507012124 | 12 | 325 | 11.3 | 16.1 | 0.00 | 0.00 | 0.00 | 34 | 932.4 |
| 20260507011623 | 12 | 297 | 12.9 | 20.9 | 0.00 | 0.00 | 0.00 | 34 | 932.6 |
| 20260507011119 | 12 | 327 | 11.3 | 16.1 | 0.00 | 0.00 | 0.00 | 34 | 932.6 |
| 20260507010614 | 13 | 325 | 11.3 | 20.9 | 0.00 | 0.00 | 0.00 | 35 | 932.5 |
| 20260507010110 | 13 | 334 | 8.0 | 12.9 | 0.00 | 0.00 | 0.00 | 35 | 932.6 |
| 20260507005608 | 13 | 351 | 3.2 | 14.5 | 0.00 | 0.00 | 0.00 | 33 | 932.7 |
| 20260507005103 | 13 | 322 | 1.6 | 20.9 | 0.00 | 0.00 | 0.00 | 34 | 932.7 |
| 20260507004600 | 13 | 324 | 14.5 | 22.5 | 0.00 | 0.00 | 0.00 | 34 | 932.6 |
| 20260507004058 | 13 | 352 | 3.2 | 20.9 | 0.00 | 0.00 | 0.00 | 34 | 932.5 |
| 20260507003554 | 13 | 358 | 9.7 | 22.5 | 0.00 | 0.00 | 0.00 | 35 | 932.6 |
| 20260507003049 | 13 | 320 | 6.4 | 11.3 | 0.00 | 0.00 | 0.00 | 35 | 932.9 |
| 20260507002546 | 13 | 311 | 1.6 | 17.7 | 0.00 | 0.00 | 0.00 | 36 | 932.7 |
| 20260507002041 | 13 | 314 | 16.1 | 16.1 | 0.00 | 0.00 | 0.00 | 35 | 932.7 |
| 20260507001538 | 13 | 325 | 6.4 | 11.3 | 0.00 | 0.00 | 0.00 | 35 | 932.6 |
| 20260507001036 | 13 | 2 | 6.4 | 9.7 | 0.00 | 0.00 | 0.00 | 34 | 932.5 |
| 20260507000532 | 13 | 357 | 6.4 | 11.3 | 0.00 | 0.00 | 0.00 | 36 | 932.7 |
| 20260507000027 | 13 | 325 | 0.0 | 9.7 | 0.00 | 0.00 | 0.00 | 36 | 932.7 |
| 20260506235525 | 12 | 338 | 4.8 | 14.5 | 0.00 | 0.00 | 0.00 | 36 | 932.7 |
| 20260506235021 | 13 | 326 | 14.5 | 24.1 | 0.00 | 0.00 | 0.00 | 37 | 932.9 |
| 20260506234519 | 13 | 279 | 1.6 | 11.3 | 0.00 | 0.00 | 0.00 | 39 | 932.8 |
| 20260506234016 | 13 | 234 | 1.6 | 3.2 | 0.00 | 0.00 | 0.00 | 40 | 932.8 |
| 20260506233512 | 12 | 195 | 1.6 | 9.7 | 0.00 | 0.00 | 0.00 | 42 | 932.9 |
| 20260506233009 | 12 | 311 | 6.4 | 14.5 | 0.00 | 0.00 | 0.00 | 42 | 932.7 |
| 20260506232505 | 13 | 310 | 14.5 | 17.7 | 0.00 | 0.00 | 0.00 | 41 | 932.7 |
| 20260506232001 | 13 | 173 | 0.0 | 3.2 | 0.00 | 0.00 | 0.00 | 42 | 932.7 |
| 20260506231458 | 13 | 241 | 0.0 | 8.0 | 0.00 | 0.00 | 0.00 | 42 | 932.9 |
| 20260506230956 | 12 | 203 | 0.0 | 8.0 | 0.00 | 0.00 | 0.00 | 44 | 932.9 |
| 20260506230451 | 12 | 308 | 16.1 | 20.9 | 0.00 | 0.00 | 0.00 | 42 | 932.7 |
| 20260506225948 | 12 | 265 | 1.6 | 4.8 | 0.00 | 0.00 | 0.00 | 42 | 932.8 |
| 20260506225446 | 13 | 260 | 4.8 | 16.1 | 0.00 | 0.00 | 0.00 | 43 | 932.7 |
| 20260506224943 | 12 | 297 | 0.0 | 8.0 | 0.00 | 0.00 | 0.00 | 44 | 932.8 |
| 20260506224440 | 12 | 303 | 3.2 | 9.7 | 0.00 | 0.00 | 0.00 | 43 | 932.7 |
| 20260506223936 | 12 | 194 | 8.0 | 16.1 | 0.00 | 0.00 | 0.00 | 42 | 932.8 |
| 20260506223432 | 11 | 220 | 8.0 | 16.1 | 0.00 | 0.00 | 0.00 | 44 | 932.9 |
| 20260506222929 | 12 | 214 | 8.0 | 11.3 | 0.00 | 0.00 | 0.00 | 42 | 932.7 |
| 20260506222426 | 12 | 339 | 3.2 | 11.3 | 0.00 | 0.00 | 0.00 | 43 | 933.2 |
| 20260506221923 | 11 | 337 | 3.2 | 12.9 | 0.00 | 0.00 | 0.00 | 44 | 933.1 |
| 20260506221420 | 11 | 348 | 0.0 | 16.1 | 0.00 | 0.00 | 0.00 | 43 | 933.2 |
| 20260506220918 | 11 | 33 | 1.6 | 4.8 | 0.00 | 0.00 | 0.00 | 42 | 933.2 |
| 20260506220413 | 11 | 274 | 0.0 | 4.8 | 0.00 | 0.00 | 0.00 | 44 | 932.9 |
| 20260506215910 | 11 | 24 | 0.0 | 1.6 | 0.00 | 0.00 | 0.00 | 43 | 933.2 |
| 20260506215406 | 11 | 240 | 0.0 | 0.0 | 0.00 | 0.00 | 0.00 | 42 | 933.2 |
| 20260506214902 | 11 | 305 | 8.0 | 14.5 | 0.00 | 0.00 | 0.00 | 45 | 933.2 |
| 20260506214359 | 10 | 170 | 0.0 | 0.0 | 0.00 | 0.00 | 0.00 | 43 | 933.4 |
| 20260506213857 | 10 | 280 | 8.0 | 11.3 | 0.00 | 0.00 | 0.00 | 44 | 933.2 |
| 20260506213354 | 10 | 343 | 4.8 | 14.5 | 0.00 | 0.00 | 0.00 | 44 | 933.4 |
| 20260506212851 | 10 | 308 | 8.0 | 11.3 | 0.00 | 0.00 | 0.00 | 43 | 933.3 |
| 20260506212347 | 9 | 351 | 0.0 | 17.7 | 0.00 | 0.00 | 0.00 | 43 | 933.5 |
| 20260506211842 | 9 | 0 | 0.0 | 12.9 | 0.00 | 0.00 | 0.00 | 43 | 933.6 |
| 20260506211338 | 9 | 328 | 4.8 | 11.3 | 0.00 | 0.00 | 0.00 | 42 | 933.5 |
| 20260506210835 | 9 | 44 | 0.0 | 0.0 | 0.00 | 0.00 | 0.00 | 40 | 933.7 |
| 20260506210332 | 8 | 331 | 4.8 | 9.7 | 0.00 | 0.00 | 0.00 | 41 | 933.7 |
| 20260506205830 | 9 | 330 | 6.4 | 22.5 | 0.00 | 0.00 | 0.00 | 41 | 933.6 |
| 20260506205325 | 10 | 1 | 8.0 | 16.1 | 0.00 | 0.00 | 0.00 | 37 | 933.3 |
| 20260506204822 | 10 | 299 | 0.0 | 1.6 | 0.00 | 0.00 | 0.00 | 38 | 933.5 |
| 20260506204320 | 10 | 258 | 1.6 | 8.0 | 0.00 | 0.00 | 0.00 | 39 | 933.6 |
| 20260506203817 | 9 | 353 | 0.0 | 11.3 | 0.00 | 0.00 | 0.00 | 38 | 933.4 |
| 20260506203314 | 8 | 337 | 0.0 | 3.2 | 0.00 | 0.00 | 0.00 | 39 | 933.5 |
| 20260506202811 | 8 | 333 | 6.4 | 14.5 | 0.00 | 0.00 | 0.00 | 38 | 933.5 |
| 20260506202308 | 9 | 290 | 9.7 | 11.3 | 0.00 | 0.00 | 0.00 | 36 | 933.6 |
| 20260506201804 | 8 | 298 | 11.3 | 16.1 | 0.00 | 0.00 | 0.00 | 38 | 933.5 |
| 20260506201302 | 7 | 352 | 8.0 | 11.3 | 0.00 | 0.00 | 0.00 | 38 | 933.5 |
| 20260506200759 | 8 | 23 | 0.0 | 0.0 | 0.00 | 0.00 | 0.00 | 36 | 933.5 |
| 20260506200255 | 8 | 314 | 1.6 | 9.7 | 0.00 | 0.00 | 0.00 | 37 | 933.4 |
| 20260506195751 | 8 | 258 | 0.0 | 3.2 | 0.00 | 0.00 | 0.00 | 38 | 933.5 |
| 20260506195248 | 8 | 318 | 1.6 | 11.3 | 0.00 | 0.00 | 0.00 | 36 | 933.4 |
| 20260506194745 | 8 | 291 | 0.0 | 11.3 | 0.00 | 0.00 | 0.00 | 35 | 933.4 |
| 20260506194241 | 8 | 232 | 0.0 | 1.6 | 0.00 | 0.00 | 0.00 | 37 | 933.6 |
| 20260506193740 | 7 | 306 | 1.6 | 9.7 | 0.00 | 0.00 | 0.00 | 43 | 933.4 |
| 20260506193236 | 7 | 304 | 8.0 | 12.9 | 0.00 | 0.00 | 0.00 | 39 | 933.3 |
| 20260506192732 | 7 | 334 | 6.4 | 17.7 | 0.00 | 0.00 | 0.00 | 42 | 933.5 |
| 20260506192229 | 7 | 321 | 12.9 | 16.1 | 0.00 | 0.00 | 0.00 | 43 | 933.3 |
| 20260506191726 | 6 | 334 | 0.0 | 16.1 | 0.00 | 0.00 | 0.00 | 44 | 933.7 |
| 20260506191222 | 6 | 6 | 14.5 | 20.9 | 0.00 | 0.00 | 0.00 | 41 | 933.4 |
| 20260506190720 | 7 | 343 | 14.5 | 17.7 | 0.00 | 0.00 | 0.00 | 41 | 933.5 |
| 20260506190216 | 6 | 267 | 8.0 | 14.5 | 0.00 | 0.00 | 0.00 | 47 | 933.5 |
| 20260506185713 | 7 | 299 | 4.8 | 12.9 | 0.00 | 0.00 | 0.00 | 49 | 933.9 |
| 20260506185209 | 6 | 232 | 8.0 | 9.7 | 0.00 | 0.00 | 0.00 | 51 | 933.5 |
| 20260506184707 | 6 | 292 | 6.4 | 14.5 | 0.00 | 0.00 | 0.00 | 51 | 933.6 |
| 20260506184204 | 6 | 346 | 11.3 | 14.5 | 0.00 | 0.00 | 0.00 | 52 | 933.5 |
| 20260506183701 | 5 | 352 | 14.5 | 17.7 | 0.00 | 0.00 | 0.00 | 56 | 933.7 |
| 20260506183157 | 6 | 272 | 8.0 | 14.5 | 0.00 | 0.00 | 0.00 | 54 | 933.2 |
| 20260506182654 | 6 | 6 | 4.8 | 8.0 | 0.00 | 0.00 | 0.00 | 54 | 933.5 |
| 20260506182151 | 6 | 310 | 11.3 | 22.5 | 0.00 | 0.00 | 0.00 | 55 | 933.5 |
| 20260506181649 | 6 | 326 | 4.8 | 4.8 | 0.00 | 0.00 | 0.00 | 50 | 933.7 |
| 20260506181146 | 6 | 353 | 17.7 | 20.9 | 0.00 | 0.00 | 0.00 | 48 | 933.6 |
| 20260506180643 | 6 | 316 | 8.0 | 9.7 | 0.00 | 0.00 | 0.00 | 52 | 933.4 |
| 20260506180139 | 5 | 359 | 8.0 | 11.3 | 0.00 | 0.00 | 0.00 | 52 | 933.5 |
| 20260506175636 | 6 | 123 | 4.8 | 4.8 | 0.00 | 0.00 | 0.00 | 53 | 933.2 |
| 20260506175132 | 4 | 297 | 4.8 | 4.8 | 0.00 | 0.00 | 0.00 | 58 | 933.2 |
| 20260506174625 | 4 | 334 | 8.0 | 11.3 | 0.00 | 0.00 | 0.00 | 60 | 932.8 |
| 20260506174121 | 4 | 352 | 8.0 | 12.9 | 0.00 | 0.00 | 0.00 | 63 | 933.2 |
| 20260506173619 | 4 | 59 | 1.6 | 9.7 | 0.00 | 0.00 | 0.00 | 56 | 933.1 |
| 20260506173115 | 6 | 31 | 6.4 | 9.7 | 0.00 | 0.00 | 0.00 | 57 | 933.2 |
| 20260506172613 | 5 | 132 | 4.8 | 9.7 | 0.00 | 0.00 | 0.00 | 60 | 933.2 |
| 20260506172109 | 5 | 72 | 8.0 | 11.3 | 0.00 | 0.00 | 0.00 | 59 | 933.1 |
| 20260506171607 | 5 | 163 | 4.8 | 8.0 | 0.00 | 0.00 | 0.00 | 58 | 933.2 |
| 20260506171104 | 5 | 75 | 3.2 | 8.0 | 0.00 | 0.00 | 0.00 | 58 | 932.9 |
| 20260506170601 | 3 | 106 | 1.6 | 12.9 | 0.00 | 0.00 | 0.00 | 62 | 932.9 |
| 20260506170059 | 4 | 83 | 4.8 | 11.3 | 0.00 | 0.00 | 0.00 | 63 | 933.1 |
| 20260506165557 | 4 | 130 | 8.0 | 11.3 | 0.00 | 0.00 | 0.00 | 66 | 933.1 |
| 20260506165053 | 3 | 87 | 4.8 | 4.8 | 0.00 | 0.00 | 0.00 | 66 | 932.7 |
| 20260506164550 | 3 | 96 | 9.7 | 11.3 | 0.00 | 0.00 | 0.00 | 66 | 932.6 |
| 20260506164047 | 3 | 68 | 4.8 | 9.7 | 0.00 | 0.00 | 0.00 | 68 | 932.7 |
| 20260506163543 | 3 | 108 | 6.4 | 11.3 | 0.00 | 0.00 | 0.00 | 69 | 932.7 |
| 20260506163039 | 3 | 124 | 3.2 | 8.0 | 0.00 | 0.00 | 0.00 | 69 | 932.8 |
| 20260506162535 | 3 | 79 | 8.0 | 11.3 | 0.00 | 0.00 | 0.00 | 69 | 932.6 |
| 20260506162033 | 2 | 80 | 4.8 | 8.0 | 0.00 | 0.00 | 0.00 | 70 | 932.5 |
| 20260506161530 | 3 | 60 | 3.2 | 8.0 | 0.00 | 0.00 | 0.00 | 68 | 932.8 |
| 20260506161027 | 2 | 51 | 1.6 | 11.3 | 0.00 | 0.00 | 0.00 | 69 | 932.5 |
| 20260506160525 | 2 | 99 | 3.2 | 4.8 | 0.00 | 0.00 | 0.00 | 70 | 932.8 |
| 20260506160022 | 3 | 68 | 0.0 | 1.6 | 0.00 | 0.00 | 0.00 | 71 | 932.4 |
| 20260506155520 | 2 | 87 | 3.2 | 8.0 | 0.00 | 0.00 | 0.00 | 74 | 932.5 |
| 20260506153651 | 1 | 75 | 4.8 | 8.0 | 0.00 | 0.00 | 0.00 | 77 | 932.5 |
| 20260506153149 | 1 | 56 | 3.2 | 4.8 | 0.00 | 0.00 | 0.00 | 77 | 932.5 |
| 20260506152645 | 1 | 77 | 4.8 | 8.0 | 0.00 | 0.00 | 0.00 | 78 | 932.6 |
| 20260506152143 | 0 | 47 | 3.2 | 8.0 | 0.00 | 0.00 | 0.00 | 78 | 932.9 |
| 20260506151641 | 1 | 92 | 4.8 | 4.8 | 0.00 | 0.00 | 0.00 | 77 | 932.6 |
| 20260506151138 | 0 | 123 | 4.8 | 8.0 | 0.00 | 0.00 | 0.00 | 78 | 932.5 |
| 20260506150635 | 1 | 77 | 3.2 | 8.0 | 0.00 | 0.00 | 0.00 | 79 | 932.7 |
| 20260506150132 | 1 | 103 | 4.8 | 9.7 | 0.00 | 0.00 | 0.00 | 79 | 933.1 |
| 20260506145629 | 1 | 87 | 8.0 | 9.7 | 0.00 | 0.00 | 0.00 | 80 | 933.1 |
| 20260506145125 | 1 | 90 | 4.8 | 9.7 | 0.00 | 0.00 | 0.00 | 80 | 933.3 |
| 20260506144623 | 0 | 122 | 9.7 | 12.9 | 0.00 | 0.00 | 0.00 | 80 | 933.5 |
| 20260506144119 | 0 | 59 | 6.4 | 11.3 | 0.00 | 0.00 | 0.00 | 81 | 933.5 |
| 20260506143617 | 0 | 102 | 6.4 | 12.9 | 0.00 | 0.00 | 0.00 | 81 | 933.9 |
| 20260506143115 | 0 | 112 | 8.0 | 9.7 | 0.00 | 0.00 | 0.00 | 82 | 934.1 |
| 20260506142613 | 0 | 118 | 4.8 | 9.7 | 0.00 | 0.00 | 0.00 | 83 | 934.3 |
| 20260506142111 | 0 | 97 | 4.8 | 8.0 | 0.00 | 0.00 | 0.00 | 83 | 934.1 |
| 20260506141608 | 0 | 111 | 8.0 | 9.7 | 0.00 | 0.00 | 0.00 | 83 | 933.7 |
| 20260506141107 | 0 | 107 | 4.8 | 8.0 | 0.00 | 0.00 | 0.00 | 84 | 932.9 |
| 20260506140604 | 0 | 105 | 6.4 | 9.7 | 0.00 | 0.00 | 0.00 | 85 | 932.1 |
| 20260506140101 | 0 | 111 | 4.8 | 9.7 | 0.00 | 0.00 | 0.00 | 86 | 931.3 |
| 20260506135557 | 0 | 90 | 12.9 | 16.1 | 0.00 | 0.00 | 0.00 | 86 | 931.5 |
| 20260506135054 | 0 | 101 | 8.0 | 11.3 | 0.00 | 0.00 | 0.00 | 87 | 931.6 |
| 20260506134550 | 0 | 87 | 11.3 | 12.9 | 0.00 | 0.00 | 0.00 | 87 | 931.7 |
| 20260506134046 | 0 | 107 | 9.7 | 12.9 | 0.00 | 0.00 | 0.00 | 87 | 931.2 |
| 20260506133544 | -1 | 71 | 8.0 | 11.3 | 0.00 | 0.00 | 0.00 | 87 | 931.1 |
| 20260506133041 | -1 | 78 | 8.0 | 16.1 | 0.00 | 0.00 | 0.00 | 87 | 931.1 |
| 20260506132538 | -1 | 74 | 6.4 | 14.5 | 0.00 | 0.00 | 0.00 | 87 | 931.0 |
| 20260506132035 | -1 | 95 | 11.3 | 14.5 | 0.00 | 0.00 | 0.00 | 87 | 931.0 |
| 20260506131532 | -1 | 108 | 8.0 | 14.5 | 0.00 | 0.00 | 0.00 | 87 | 930.9 |
| 20260506131028 | -1 | 122 | 8.0 | 12.9 | 0.00 | 0.00 | 0.00 | 87 | 930.7 |
| 20260506130525 | -1 | 109 | 6.4 | 14.5 | 0.00 | 0.00 | 0.00 | 87 | 930.8 |
| 20260506130023 | -1 | 91 | 11.3 | 16.1 | 0.00 | 0.00 | 0.00 | 87 | 930.3 |
| 20260506125521 | -1 | 90 | 14.5 | 16.1 | 0.00 | 0.00 | 0.00 | 88 | 930.8 |
| 20260506125018 | -1 | 112 | 11.3 | 16.1 | 0.00 | 0.00 | 0.00 | 88 | 930.5 |
| 20260506124516 | -1 | 92 | 9.7 | 14.5 | 0.00 | 0.00 | 0.00 | 89 | 930.4 |
| 20260506124014 | -1 | 110 | 6.4 | 11.3 | 0.00 | 0.00 | 0.00 | 89 | 930.3 |
| 20260506123512 | -1 | 79 | 6.4 | 11.3 | 0.00 | 0.00 | 0.00 | 89 | 930.5 |
| 20260506123009 | -1 | 65 | 8.0 | 12.9 | 0.00 | 0.00 | 0.00 | 89 | 930.3 |
| 20260506122506 | -1 | 101 | 11.3 | 12.9 | 0.00 | 0.00 | 0.00 | 89 | 930.2 |
| 20260506122004 | -1 | 87 | 4.8 | 14.5 | 0.00 | 0.00 | 0.00 | 90 | 930.0 |
| 20260506121501 | -2 | 72 | 9.7 | 11.3 | 0.00 | 0.00 | 0.00 | 91 | 929.9 |
| 20260506120957 | -2 | 95 | 9.7 | 12.9 | 0.00 | 0.00 | 0.00 | 91 | 930.0 |
| 20260506120455 | -2 | 71 | 0.0 | 0.0 | 0.00 | 0.00 | 0.00 | 91 | 930.0 |
| 20260506115952 | -2 | 82 | 3.2 | 8.0 | 0.00 | 0.00 | 0.00 | 91 | 930.1 |
| 20260506115450 | -2 | 76 | 4.8 | 9.7 | 0.00 | 0.00 | 0.00 | 91 | 929.7 |
| 20260506114948 | -2 | 78 | 4.8 | 8.0 | 0.00 | 0.00 | 0.00 | 91 | 929.9 |
| 20260506114445 | -2 | 71 | 6.4 | 9.7 | 0.00 | 0.00 | 0.00 | 91 | 929.6 |
| 20260506113944 | -2 | 62 | 4.8 | 9.7 | 0.00 | 0.00 | 0.00 | 91 | 929.9 |
| 20260506113442 | -2 | 69 | 3.2 | 8.0 | 0.00 | 0.00 | 0.00 | 90 | 929.7 |
| 20260506112937 | -2 | 63 | 1.6 | 3.2 | 0.00 | 0.00 | 0.00 | 90 | 929.7 |
| 20260506112435 | -2 | 67 | 1.6 | 4.8 | 0.00 | 0.00 | 0.00 | 90 | 929.5 |
| 20260506111932 | -2 | 81 | 6.4 | 8.0 | 0.00 | 0.00 | 0.00 | 89 | 929.6 |
| 20260506111430 | -2 | 63 | 0.0 | 4.8 | 0.00 | 0.00 | 0.00 | 89 | 929.5 |
| 20260506110927 | -1 | 46 | 3.2 | 4.8 | 0.00 | 0.00 | 0.00 | 89 | 929.3 |
| 20260506110425 | -1 | 34 | 0.0 | 3.2 | 0.00 | 0.00 | 0.00 | 89 | 929.3 |
| 20260506105921 | -1 | 37 | 3.2 | 9.7 | 0.00 | 0.00 | 0.00 | 88 | 929.3 |
| 20260506105418 | -1 | 39 | 4.8 | 12.9 | 0.00 | 0.00 | 0.00 | 88 | 929.6 |
| 20260506104915 | -1 | 60 | 6.4 | 12.9 | 0.00 | 0.00 | 0.00 | 88 | 929.2 |
| 20260506104413 | -1 | 56 | 6.4 | 12.9 | 0.00 | 0.00 | 0.00 | 88 | 929.3 |
| 20260506103911 | -1 | 89 | 9.7 | 14.5 | 0.00 | 0.00 | 0.00 | 87 | 929.5 |
| 20260506103408 | -1 | 61 | 9.7 | 20.9 | 0.00 | 0.00 | 0.00 | 88 | 929.3 |
| 20260506102905 | -1 | 72 | 14.5 | 17.7 | 0.00 | 0.00 | 0.00 | 88 | 929.4 |
| 20260506102404 | -1 | 65 | 4.8 | 9.7 | 0.00 | 0.00 | 0.00 | 88 | 929.3 |
| 20260506101901 | -1 | 61 | 0.0 | 4.8 | 0.00 | 0.00 | 0.00 | 87 | 929.1 |
| 20260506101357 | -1 | 61 | 4.8 | 8.0 | 0.00 | 0.00 | 0.00 | 87 | 929.2 |
| 20260506100854 | -1 | 114 | 8.0 | 12.9 | 0.00 | 0.00 | 0.00 | 87 | 929.1 |
| 20260506100353 | -1 | 109 | 9.7 | 14.5 | 0.00 | 0.00 | 0.00 | 87 | 929.2 |
| 20260506095850 | -1 | 118 | 8.0 | 14.5 | 0.00 | 0.00 | 0.00 | 87 | 929.4 |
| 20260506095348 | -1 | 61 | 0.0 | 0.0 | 0.00 | 0.00 | 0.00 | 88 | 929.2 |
| 20260506094844 | 0 | 74 | 0.0 | 3.2 | 0.00 | 0.00 | 0.00 | 88 | 929.1 |
| 20260506094343 | 0 | 69 | 4.8 | 9.7 | 0.00 | 0.00 | 0.00 | 87 | 929.3 |
| 20260506093841 | 0 | 61 | 3.2 | 11.3 | 0.00 | 0.00 | 0.00 | 87 | 929.1 |
| 20260506093338 | 0 | 137 | 14.5 | 17.7 | 0.00 | 0.00 | 0.00 | 88 | 929.2 |
| 20260506092835 | 0 | 138 | 14.5 | 14.5 | 0.00 | 0.00 | 0.00 | 89 | 929.2 |
| 20260506092334 | 0 | 106 | 9.7 | 24.1 | 0.00 | 0.00 | 0.00 | 89 | 929.3 |
| 20260506091830 | -1 | 98 | 16.1 | 22.5 | 0.00 | 0.00 | 0.00 | 91 | 929.6 |
| 20260506091328 | -1 | 87 | 12.9 | 20.9 | 0.00 | 0.00 | 0.00 | 91 | 929.5 |
| 20260506090825 | -1 | 121 | 17.7 | 27.4 | 0.00 | 0.00 | 0.00 | 92 | 929.4 |
| 20260506090322 | -1 | 36 | 12.9 | 17.7 | 0.00 | 0.00 | 0.00 | 92 | 929.5 |
| 20260506085819 | -1 | 67 | 9.7 | 17.7 | 0.00 | 0.00 | 0.00 | 92 | 929.6 |
| 20260506085315 | -1 | 80 | 9.7 | 17.7 | 0.00 | 0.00 | 0.00 | 93 | 929.5 |
| 20260506084811 | 0 | 126 | 14.5 | 22.5 | 0.00 | 0.00 | 0.00 | 93 | 929.5 |
| 20260506084308 | -1 | 95 | 11.3 | 24.1 | 0.00 | 0.00 | 0.00 | 93 | 929.6 |
| 20260506083805 | 0 | 89 | 19.3 | 25.7 | 0.00 | 0.00 | 0.00 | 93 | 929.5 |
| 20260506083302 | -1 | 79 | 11.3 | 12.9 | 0.00 | 0.00 | 0.00 | 93 | 929.6 |
| 20260506082759 | 0 | 107 | 6.4 | 12.9 | 0.00 | 0.00 | 0.00 | 93 | 929.5 |
| 20260506082255 | -1 | 143 | 12.9 | 20.9 | 0.00 | 0.00 | 0.00 | 93 | 929.5 |
| 20260506081753 | 0 | 95 | 11.3 | 20.9 | 0.00 | 0.00 | 0.00 | 92 | 929.4 |
| 20260506081250 | 0 | 96 | 14.5 | 29.0 | 0.00 | 0.00 | 0.00 | 91 | 929.3 |
| 20260506080748 | 0 | 112 | 19.3 | 29.0 | 0.00 | 0.00 | 0.00 | 90 | 929.3 |
| 20260506080244 | 0 | 107 | 16.1 | 24.1 | 0.00 | 0.00 | 0.00 | 89 | 928.9 |
| 20260506073228 | 0 | 111 | 27.4 | 38.6 | 0.00 | 0.00 | 0.00 | 93 | 928.7 |
| 20260506072725 | 0 | 114 | 20.9 | 40.2 | 0.00 | 0.00 | 0.00 | 94 | 928.6 |
| 20260506072223 | 0 | 105 | 22.5 | 35.4 | 0.00 | 0.00 | 0.00 | 95 | 928.4 |
| 20260506071720 | 0 | 72 | 29.0 | 40.2 | 0.00 | 0.00 | 0.00 | 95 | 928.5 |
| 20260506071218 | 0 | 104 | 25.7 | 49.9 | 0.00 | 0.00 | 0.00 | 96 | 928.3 |
| 20260506070714 | 0 | 103 | 32.2 | 43.5 | 0.00 | 0.00 | 0.00 | 96 | 928.5 |
| 20260506070212 | 0 | 103 | 19.3 | 24.1 | 0.00 | 0.00 | 0.00 | 97 | 928.1 |
| 20260506062148 | 0 | 68 | 29.0 | 48.3 | 0.00 | 0.00 | 0.00 | 96 | 927.1 |
| 20260506061644 | 0 | 69 | 19.3 | 41.8 | 0.00 | 0.00 | 0.00 | 96 | 927.0 |
| 20260506061142 | 1 | 103 | 24.1 | 35.4 | 0.00 | 0.00 | 0.00 | 96 | 927.0 |
| 20260506060640 | 1 | 93 | 14.5 | 38.6 | 0.00 | 0.00 | 0.00 | 95 | 926.8 |
| 20260506060137 | 1 | 69 | 12.9 | 40.2 | 0.00 | 0.00 | 0.00 | 95 | 926.8 |
| 20260506051109 | 2 | 80 | 14.5 | 25.7 | 0.00 | 0.99 | 0.99 | 90 | 926.1 |
| 20260506050607 | 2 | 53 | 14.5 | 46.7 | 0.00 | 0.99 | 0.99 | 90 | 925.6 |
| 20260506050104 | 2 | 85 | 11.3 | 27.4 | 0.00 | 0.99 | 0.99 | 91 | 925.9 |
| 20260506045057 | 2 | 56 | 24.1 | 37.0 | 0.00 | 0.99 | 0.99 | 92 | 925.9 |
| 20260506044555 | 3 | 67 | 20.9 | 35.4 | 0.00 | 0.99 | 0.99 | 92 | 925.5 |
| 20260506044052 | 3 | 71 | 27.4 | 38.6 | 0.00 | 0.99 | 0.99 | 92 | 925.5 |
| 20260506043549 | 3 | 58 | 16.1 | 41.8 | 0.00 | 0.99 | 0.99 | 91 | 925.4 |